[[{"header":{"parameterUnit":"m.s-1","parameterCategory":1,"la1":30.2991,"la2":30.254,"lo1":-89.0895,"lo2":-89.0444,"dy":0.0017,"dx":0.0017,"nx":28,"ny":28,"refTime":"2024-05-18T09:00:00:Z","depth":0,"parameterNumber":2,"parameterNumberName":"U-component_of_WINDS"},"data":[0,0,0,0,0,0,0,0,0,0,0,0,0,0,0,0,0,0,0,0,0,0,0,0,0,0,0,0,0,0,0,0,0,0,0,0,0,0,0,0,0,0,0,0,0,0,0,0,0,0,0,0,0,0,0,0,0,0,1.9364,1.9365,0,1.9467,1.9468,1.9469,1.9478,1.9477,1.9476,1.9475,1.9581,1.9585,1.9589,0,0,0,0,0,0,0,0,0,0,0,0,0,1.9173,1.9177,1.9364,1.9365,1.9366,1.9467,1.9468,1.947,1.9478,1.9477,1.9476,1.9474,1.958,1.9584,1.9589,0,0,0,0,0,0,0,0,0,0,0,0,0,1.9264,1.9178,1.9363,1.9383,1.9385,1.9466,1.9468,1.947,1.9479,1.9477,1.9475,1.9474,1.9578,1.9584,1.959,1.9659,0,0,1.9607,1.961,0,0,0,0,0,0,0,0,1.9259,1.9271,1.9379,1.9381,1.9385,1.9458,1.944,1.9533,1.9479,1.9443,1.9475,1.9473,1.9542,1.955,1.9573,1.9664,1.9668,1.9608,1.9611,1.9614,1.9616,0,0,0,0,0,0,0,1.9253,1.9267,1.9404,1.938,1.9384,1.9386,1.9397,1.9458,1.95,1.9446,1.9447,1.9459,1.9543,1.9568,1.9576,1.967,1.9608,1.9613,1.9617,1.9619,1.982,1.9822,0,0,0,0,0,0,1.9243,1.9261,1.9401,1.9408,1.9316,1.9391,1.9403,1.9436,1.95,1.9508,1.9461,1.9459,1.9559,1.9569,1.958,1.9663,1.9614,1.9619,1.9623,1.9818,1.982,1.9822,0,0,0,0,0,0,1.9238,1.9255,1.9397,1.9335,1.9353,1.9396,1.9433,1.9439,1.9464,1.9511,1.9518,1.9478,1.9558,1.9572,1.9638,1.9667,1.9622,1.9627,1.9816,1.9819,1.9821,1.9831,0,0,0,0,0,0,1.9233,1.9253,1.928,1.9335,1.9356,1.9454,1.9435,1.9442,1.9474,1.9473,1.9529,1.9537,1.9558,1.963,1.9644,1.9674,1.9632,1.9813,1.9817,1.982,1.9828,1.9834,1.9839,0,0,0,0,0,1.9226,1.928,1.9282,1.9299,1.9391,1.9456,1.9468,1.9491,1.9476,1.9503,1.9533,1.9535,1.9662,1.9637,1.9653,1.9685,1.9812,1.9816,1.982,1.9826,1.9833,1.9838,0,0,0,0,0,0,1.9227,1.9287,1.929,1.9363,1.9404,1.9457,1.9492,1.9497,1.9544,1.9541,1.9567,1.958,1.9645,1.9672,1.9643,1.9754,1.9735,1.9743,1.9734,1.9741,1.9746,1.9738,1.9637,0,0,0,0,0,1.9236,1.9284,1.9334,1.9393,1.9414,1.9449,1.9479,1.9492,1.9536,1.9554,1.9589,1.9631,1.968,1.9712,1.976,1.9832,1.9844,1.9862,1.9867,1.9871,1.9877,1.9916,1.9924,1.9836,1.9836,1.9836,0,0,1.9255,1.9293,1.9322,1.9394,1.9428,1.9477,1.9464,1.9517,1.9553,1.9562,1.9627,1.9654,1.9703,1.9772,1.9804,1.9796,1.9904,1.9877,1.9879,1.9884,1.9921,1.9929,1.9936,1.9839,1.9838,1.9838,0,0,1.9313,1.9348,1.94,1.9434,1.9484,1.9508,1.952,1.9572,1.959,1.9656,1.9663,1.9706,1.9791,1.9825,1.9853,1.9923,1.9926,1.9938,1.9964,2.0001,2.0008,2.0014,2.0038,2.0046,1.9944,1.9944,1.9944,0,1.933,1.9403,1.9426,1.9478,1.9509,1.9519,1.9572,1.9604,1.9667,1.9688,1.9678,1.9783,1.9817,1.9894,1.991,1.9934,1.9948,1.9931,2.0005,2.0012,2.0018,2.0041,2.0049,1.9945,1.9945,1.9945,1.9945,0,1.942,1.9471,1.9508,1.9568,1.9603,1.9655,1.9686,1.9719,1.9729,1.9753,1.9818,1.9859,1.9915,1.9934,1.9945,2.0012,2.0005,2.0,1.9981,2.0027,2.0048,2.0057,1.9947,1.9946,1.9946,1.9946,0,0,1.9483,1.9554,1.9567,1.9594,1.965,1.969,1.9742,1.9796,1.9823,1.9866,1.9909,1.998,1.9975,2.0007,2.0022,2.0055,2.0105,2.0046,2.0047,2.0054,2.0179,2.0182,2.0192,2.0108,2.011,2.0111,2.0175,0,1.9546,1.9639,1.966,1.974,1.9786,1.9796,1.9841,1.988,1.9903,1.9946,1.9972,2.0021,2.0012,2.0031,2.0064,2.0092,2.0131,2.0088,2.0148,2.015,2.0134,2.0203,2.0206,2.0264,2.0183,2.0185,2.0186,0,1.9633,1.9677,1.9761,1.9809,1.983,1.987,1.992,1.9961,2.0005,2.0019,2.0054,2.0066,2.0119,2.0098,2.0172,2.0142,2.0168,2.0186,2.0189,2.0194,2.017,2.0209,2.0284,2.0292,2.02,2.0199,2.0198,0,1.9667,1.9748,1.9808,1.9831,1.989,1.9918,1.9943,1.9986,2.0016,2.006,2.008,2.013,2.0157,2.0195,2.0219,2.0202,2.029,2.0271,2.0302,2.0302,2.032,2.0318,2.0398,2.0339,2.0338,2.0338,2.0338,0,1.9735,1.9786,1.9825,1.9861,1.9918,1.9942,1.9997,2.0023,2.006,2.0101,2.0113,2.0152,2.0182,2.0224,2.0244,2.0301,2.0313,2.0326,2.033,2.0324,2.0322,2.0341,2.0337,2.0341,2.034,2.034,2.0339,0,1.9783,1.9812,1.9877,1.9927,1.9941,1.998,2.0022,2.0058,2.0081,2.0134,2.0147,2.0184,2.0235,2.0262,2.0326,2.0339,2.0402,2.0405,2.0387,2.0389,2.0418,2.0414,2.0511,2.0524,2.0457,2.0458,2.0458,0,1.9824,1.9863,1.9916,1.9945,1.9971,2.0017,2.0048,2.0073,2.0104,2.0156,2.0185,2.0237,2.0279,2.0359,2.0391,2.0439,2.0442,2.0473,2.045,2.0442,2.0441,2.0438,2.0441,2.0477,2.0477,2.0478,2.0478,0,1.9893,1.9905,1.9949,1.9997,2.0034,2.0073,2.0112,2.0135,2.0166,2.0201,2.0253,2.0285,2.0349,2.0399,2.045,2.0476,2.0482,2.0485,2.0495,2.0489,2.0476,2.0481,2.0396,2.0483,2.0482,2.0482,2.0482,2.0482,1.9938,1.9972,2.0014,2.0063,2.0095,2.0131,2.0166,2.0194,2.0237,2.0291,2.0303,2.0357,2.0399,2.0467,2.0494,2.0536,2.0531,2.0545,2.0548,2.0551,2.0551,2.047,2.0546,2.0546,2.0546,2.0546,2.0546,0,2.0005,2.0033,2.0077,2.0131,2.0169,2.0171,2.0215,2.0246,2.0293,2.0331,2.0372,2.043,2.0479,2.0514,2.0563,2.059,2.0594,2.0602,2.0599,2.0605,2.0554,2.0541,2.0598,2.0598,2.0598,2.0598,2.0598,2.0598,2.0045,2.0103,2.0119,2.0192,2.022,2.0272,2.0297,2.0329,2.036,2.0424,2.0464,2.0487,2.0524,2.0576,2.062,2.0629,2.0646,2.0653,2.0663,2.0614,2.0609,2.0603,2.059,2.0657,2.0657,2.071,2.071,2.071]},{"header":{"parameterUnit":"m.s-1","parameterCategory":1,"la1":30.2991,"la2":30.254,"lo1":-89.0895,"lo2":-89.0444,"dy":0.0017,"dx":0.0017,"nx":28,"ny":28,"refTime":"2024-05-18T09:00:00:Z","depth":0,"parameterNumber":3,"parameterNumberName":"V-component_of_WINDS"},"data":[0,0,0,0,0,0,0,0,0,0,0,0,0,0,0,0,0,0,0,0,0,0,0,0,0,0,0,0,0,0,0,0,0,0,0,0,0,0,0,0,0,0,0,0,0,0,0,0,0,0,0,0,0,0,0,0,0,0,3.6712,3.6711,0,3.6677,3.6677,3.6677,3.6642,3.6641,3.6641,3.664,3.6604,3.6603,3.6602,0,0,0,0,0,0,0,0,0,0,0,0,0,3.6745,3.6744,3.6712,3.6711,3.6711,3.6677,3.6677,3.6677,3.6642,3.6641,3.6641,3.664,3.6604,3.6603,3.6602,0,0,0,0,0,0,0,0,0,0,0,0,0,3.6723,3.6744,3.6712,3.669,3.6687,3.6678,3.6677,3.6676,3.6642,3.6641,3.6641,3.664,3.6604,3.6603,3.6602,3.6611,0,0,3.66,3.6599,0,0,0,0,0,0,0,0,3.6724,3.6721,3.6693,3.6691,3.6689,3.6663,3.6675,3.6654,3.6642,3.6659,3.664,3.664,3.6624,3.6621,3.6616,3.6609,3.6608,3.66,3.6599,3.6599,3.6599,0,0,0,0,0,0,0,3.6725,3.6723,3.6698,3.6693,3.669,3.6681,3.6677,3.6671,3.6646,3.6658,3.6655,3.6652,3.6622,3.6617,3.6615,3.6607,3.66,3.6599,3.6599,3.6598,3.6604,3.6605,0,0,0,0,0,0,3.6731,3.6724,3.6699,3.6697,3.6705,3.6681,3.6676,3.6672,3.6646,3.6641,3.6652,3.665,3.6619,3.6616,3.6614,3.6621,3.6599,3.6598,3.6598,3.6603,3.6604,3.6605,0,0,0,0,0,0,3.6732,3.6729,3.6701,3.671,3.6706,3.6681,3.6676,3.6672,3.6667,3.6642,3.6637,3.6652,3.6618,3.6615,3.6612,3.662,3.6598,3.6597,3.6603,3.6604,3.6605,3.6637,0,0,0,0,0,0,3.6733,3.6729,3.6733,3.671,3.6705,3.67,3.6677,3.6672,3.6665,3.6662,3.664,3.6636,3.6618,3.6613,3.6611,3.6618,3.6596,3.6602,3.6603,3.6604,3.6635,3.6639,3.6643,0,0,0,0,0,3.6734,3.6744,3.6733,3.6731,3.671,3.6701,3.6698,3.6677,3.6666,3.6669,3.6653,3.6636,3.6619,3.6613,3.661,3.6617,3.6601,3.6603,3.6604,3.6634,3.6638,3.6642,0,0,0,0,0,0,3.6768,3.674,3.6729,3.6731,3.6719,3.6695,3.6698,3.6683,3.6673,3.667,3.6645,3.664,3.664,3.6628,3.6622,3.6624,3.6608,3.6609,3.6631,3.6635,3.6639,3.6642,3.6596,0,0,0,0,0,3.6775,3.6771,3.6747,3.6752,3.6746,3.6723,3.6719,3.6704,3.669,3.6684,3.6667,3.6653,3.6645,3.6639,3.663,3.6634,3.6627,3.6637,3.664,3.6643,3.6644,3.6644,3.6647,3.661,3.661,3.661,0,0,3.6791,3.6776,3.6775,3.6758,3.6747,3.6742,3.6719,3.6715,3.6711,3.6683,3.6679,3.6666,3.6649,3.6649,3.6648,3.6639,3.6653,3.6645,3.6648,3.6647,3.6646,3.6649,3.6652,3.6611,3.6611,3.661,0,0,3.6818,3.6806,3.6808,3.6797,3.678,3.6764,3.6765,3.6743,3.6734,3.673,3.6708,3.6702,3.6688,3.6676,3.6668,3.6689,3.6673,3.6687,3.6705,3.6705,3.6708,3.6711,3.6717,3.672,3.6688,3.6688,3.6688,0,3.684,3.6832,3.6811,3.6808,3.6801,3.6776,3.6777,3.6767,3.6748,3.6743,3.6733,3.6714,3.6701,3.6697,3.6702,3.6697,3.6695,3.6689,3.671,3.6712,3.6714,3.6719,3.6722,3.669,3.669,3.6689,3.6689,0,3.6859,3.6855,3.6858,3.684,3.6834,3.6833,3.6811,3.6806,3.6792,3.6777,3.6772,3.6755,3.6741,3.6739,3.6725,3.6733,3.6728,3.6715,3.6698,3.6719,3.6724,3.6726,3.6692,3.6692,3.6691,3.6691,0,0,3.6906,3.6876,3.6878,3.6869,3.6848,3.6843,3.6841,3.6828,3.6824,3.6811,3.6807,3.6796,3.6783,3.6774,3.6758,3.6758,3.6774,3.6744,3.6743,3.675,3.678,3.6789,3.6792,3.6763,3.6764,3.6764,3.6781,0,3.6928,3.6924,3.6904,3.6904,3.6899,3.6874,3.6872,3.6858,3.6844,3.6837,3.6821,3.6812,3.6797,3.6791,3.679,3.6772,3.678,3.6771,3.6758,3.6758,3.6763,3.6795,3.6806,3.6823,3.6783,3.6783,3.6783,0,3.6954,3.6943,3.6943,3.6921,3.6918,3.6916,3.6902,3.6896,3.6879,3.6869,3.6858,3.6841,3.6835,3.682,3.6812,3.6806,3.68,3.679,3.679,3.6788,3.6772,3.6793,3.6828,3.683,3.6786,3.6786,3.6786,0,3.6987,3.6972,3.697,3.6963,3.6938,3.6937,3.6926,3.6909,3.6902,3.6889,3.6884,3.6871,3.6863,3.6853,3.6831,3.6822,3.6825,3.6808,3.6815,3.6815,3.6816,3.6816,3.685,3.6813,3.6813,3.6813,3.6813,0,3.7013,3.7014,3.6984,3.6983,3.6983,3.696,3.6959,3.6946,3.6931,3.6925,3.6903,3.6898,3.6871,3.6862,3.6845,3.684,3.6837,3.6828,3.6823,3.6829,3.683,3.6824,3.6822,3.6814,3.6814,3.6813,3.6813,0,3.705,3.703,3.7026,3.7002,3.6996,3.6997,3.6976,3.6973,3.6958,3.6951,3.6948,3.6923,3.6912,3.689,3.6873,3.6861,3.6859,3.6852,3.6865,3.6862,3.687,3.6869,3.69,3.6902,3.6865,3.6866,3.6866,0,3.7068,3.7068,3.7044,3.7039,3.703,3.7022,3.7015,3.6992,3.6985,3.6965,3.6964,3.6952,3.694,3.6923,3.6903,3.6889,3.688,3.6892,3.6878,3.6884,3.6879,3.6879,3.6878,3.6895,3.6896,3.6896,3.6896,0,3.7101,3.7092,3.7083,3.707,3.7062,3.7051,3.7038,3.7035,3.7009,3.7002,3.6991,3.6982,3.6964,3.6951,3.6934,3.6921,3.6904,3.6901,3.6902,3.6908,3.6915,3.691,3.6873,3.69,3.69,3.69,3.6899,3.6899,3.7129,3.7127,3.711,3.71,3.7089,3.7077,3.7073,3.7057,3.7047,3.7032,3.7018,3.7008,3.6989,3.6965,3.6953,3.6943,3.6935,3.6936,3.6936,3.6937,3.6939,3.6917,3.694,3.694,3.694,3.694,3.694,0,3.716,3.7148,3.7139,3.7123,3.7115,3.71,3.7085,3.7079,3.707,3.7055,3.7044,3.7031,3.7018,3.6996,3.6981,3.6977,3.6969,3.6974,3.6974,3.6971,3.6948,3.6948,3.6981,3.6981,3.6981,3.6981,3.6981,3.6981,3.7176,3.7172,3.716,3.715,3.7137,3.7128,3.712,3.7109,3.7096,3.7082,3.7072,3.7058,3.704,3.7023,3.701,3.7004,3.6999,3.7006,3.6997,3.6976,3.6973,3.6969,3.6969,3.7005,3.7006,3.7021,3.7021,3.7021]}]]